Погода Ново-Иерусалим

Погода Ново-Иерусалим : погода сейчас, прогноз погоды и архив. Всё, что Вы хотите узнать о погоде Ново-Иерусалим!

Поиск расширенной информации на нашем сайте:

Другие новости

Новости СМИ2

Главная страница сайта

Новости сайта

03.07.2017

Напоминаем, что на нашем специализированном сайте Метеоцентр.Азия вы можете получить высокодетализированные автоматические прогнозы погоды по пунктам России, СНГ и мира в авиационном формате (включающие направление и скорость ветра, видимость, явления погоды, количество и форму облачности, нижнюю и верхнюю границу облачности).


Погода Ново-Иерусалим - сегодня

Время (UTC), дата Ветер
(°,м/с) 
Видим.   Явления Облачность Т
(°С)
Тd
(°С)
f(%) Тe
(°С)
Pmin
(гПа)
dP
(гПа)
Po
(мм)
O2
(г/м3)
Тmin Tmax R s Состояние
почвы
06 17.04.18 тихо ()   0500 м  туман  9/4 600 м средняя, верхняя 
[Sc|Ac trans|Ci fib]
+10.4 +9.6 95 +11  1016.9  0.5  748  289  +5.3      влажная 
09 17.04.18 160 (Ю) 10 км  {туман}  10/8 600 м средняя, верхняя 
[Sc|Ac trans|Cs]
+16.1 +8.4 60 +17  1016.4  -0.2  748  283           
21 17.04.18 120 (ЮВ) 10 км  {ливн. осадки}  10/10 600 м кучево-дожд. 
[Cb calv]
+11.7 +10.1 90 +12  1011.6  -2.2  744  286           
03 18.04.18 220 (ЮЗ) 10 км  в посл. час ливневой дождь  10/10 600 м кучево-дожд. 
[Cb calv]
+10.5 +9.1 91 +12  1008.6  -1.5  742  286  +10.5       
06 18.04.18 300 (СЗ) 4000 м  слаб. ливневой дождь  10/10 300 м кучево-дожд. 
[Cb calv]
+10.8 +9.6 92 +11  1008.1  -0.5  742  286  +10.5      влажная 
09 18.04.18 300 (СЗ) 10 км  слаб. ливневой дождь  10/10 300 м кучево-дожд. 
[Cb calv]
+8.3 +6.6 89 +8  1008.9  0.7  742  289           
21 18.04.18 310 (СЗ) 10 км    10/10 600 м кучево-дожд. 
[Cb calv]
+5.8 +4.5 91 +6  1007.7  -1.8  741  292           
03 19.04.18 340 (С) 10 км  слаб. ливневой дождь  10/10 300 м кучево-дожд. 
[Cb calv]
+6.5 +5.5 93 +6  1005.7  -0.6  740  290  +5.7       
06 19.04.18 350 (С) 10 км  {ливн. осадки}  10/10 600 м кучево-дожд. 
[Cb calv]
+6.4 +3.4 81 +5  1006.1  0.3  740  291  +5.7      влажная 
09 19.04.18 350 (С) 4{10}  10 км    10/10 600 м кучево-дожд. 
[Cb calv]
+9.2 +0.7 55 +8  1006.3  0.4  740  288           
21 19.04.18 340 (С) 10 км    3/0 верхняя 
[Ci fib]
+8.7 -2.4 46 +8  1011.6  1.5  744  291           
00 20.04.18 340 (С) 10 км    ясно 
+6.4 -1.9 55 +5  1012.7  745  293           
09 20.04.18 350 (С) 10 км    8/5 1000 м верхняя 
[Cu hum|Ci fib]
+14.2 -1.6 34 +14  1014.8  747  286           
15 20.04.18 330 (СЗ) 10 км    9/6 600 м средняя, верхняя 
[Sc|Ac trans|Ci fib]
+14.1 -3 30 +15  1013  -1.4  746  286           
21 20.04.18 тихо ()   10 км    9/0 средняя, верхняя 
[Ac As|Cs]
+6.7 +2.3 73 +7  1010.6  -1.9  743  292           
00 21.04.18 220 (ЮЗ) 10 км    10/0 средняя 
[As op]
+8.9 +0.9 57 +9  1006.7  -3.6  741  289           
18 21.04.18 300 (СЗ) 8-19{19}  10 км  {гроза, ливн. осадки}  8/8 600 м кучево-дожд. 
[Cb calv]
+8.2 +2.5 67 +6  989.5  1.7  728  284    +20.7     
03 22.04.18 320 (СЗ) 4{11}  10 км  слаб. ливневой дождь  10/10 600 м кучево-дожд. 
[Cb calv]
+2.5 +0.3 85 996.7  1.9  733  293  +2.4       
06 22.04.18 320 (СЗ) 5-11{12}  10 км  {ливн. осадки}  10/10 600 м кучево-дожд. 
[Cb calv]
+2.9 -2 70 998.6  1.9  734  293  +2.4      влажная 
18 22.04.18 010 (С) 2{11}  10 км  в посл. час ливневой снег  8/8 600 м кучево-дожд. 
[Cb calv]
+1.6 -3.4 69 +1  1008.3  2.7  741  297    +4.1  0.0     
21 22.04.18 320 (СЗ) 10 км  {ливн. осадки}  9/5 600 м средняя 
[Sc|Ac trans]
+0.5 -4.6 69 +1  1010  1.6  743  299           
03 23.04.18 310 (СЗ) 10 км    ясно 
-1.6 -6 72 -3  1012.6  1.4  744  302  -1.9    0.0     
15 23.04.18 320 (СЗ) 10 км    ясно 
+7.8 -10.7 26 +7  1012.6  0.1  745  293           
21 23.04.18 300 (СЗ) 10 км    ясно 
-2.1 -5.5 77 -2  1013.9  745  303           
00 24.04.18 300 (СЗ) 10 км    ясно 
-4 -5.9 87 -4  1014.6  0.6  746  306           
Время (UTC), дата Ветер
(°,м/с) 
Видим.   Явления Облачность Т
(°С)
Тd
(°С)
f(%) Тe
(°С)
Pmin
(гПа)
dP
(гПа)
Po
(мм)
O2
(г/м3)
Тmin Tmax R s Состояние
почвы

Для получения пояснительной информации подведите курсор к названию столбца.

ПОГОДА Ново-Иерусалим - архив

Всё, что Вы хотите узнать о погоде Ново-Иерусалим - удобно и подробно!

Выберите нужную дату (начиная с 1 января 2015* года) и нажмите кнопку "Найти".
Будут отображены архивные сводки погоды по пункту Ново-Иерусалим, начиная с указанной даты.


Отображать данные в формате CSV (для использования в таблицах Excel)


Внимание! Наш архив погоды предназначен исключительно для личного некоммерческого использования в познавательных целях. Если Вам необходимы официальные справки о состоянии погоды (для производственных, юридических, коммерческих и т.п. целей), обращайтесь в органы Росгидромета.

*Примечание: данная дата относится к архиву по метеостанциям СССР (Россия, СНГ, Балтия).
Архив по метеостанциям Зарубежной Европы и Азии (кроме Китая) хранится 10 дней, по другим регионам земного шара (Китай, Африка, Америка, Австралия, Океания) - 1 день.

Ново-Иерусалим - район местоположения метеостанции


Название, широта, долгота, высота метеостанции:
Ново-Иерусалим 55.9°ш. 36.8°д. 162 м над ур. моря [Российская Федерация]

Дополнительная информация

В oтличие oт бoльшинства пoгoдных сайтoв мы публикуем пoдрoбную метеoинфoрмацию в детальнoм прoфессиoнальнoм фoрмате.

Характеристики температуры и влажнoсти вoздуха измеряются на высoте 2 м в тени вдали oт зданий и деревьев.
Скoрoсть ветра измеряется на высoте 10 м (на урoвне рoста челoвека скoрoсть ветра ниже в 1.5-2 раза). Если метеoстанция нахoдится в гoрoде или в лесу, тo скoрoсть ветра занижена на 2-4 м/с пo сравнению с oткрытым местoм. Скoрoсть ветра над акватoриями крупных рек и oзёр, а также на вершинах хoлмoв на 2-5 м/с выше, чем в oбычных услoвиях.
Атмoсфернoе давление в разных тoчках местнoсти мoжет значительнo oтличаться oт давления на метеoстанции, в зависимoсти oт услoвий рельефа (при пoдъёме на 10 м давление пoнижается примернo на 1 мм рт.ст.).